Flag for Germany Weather past 2 weeks in Heidelberg, Baden-Württemberg, Germany

Now
41 °F

Passing clouds.


Feels Like: 37 °F
Forecast: 37 / 44 °F
Wind: 6 mph from Southwest

Location: Baden Wurttemberg - Neuostheim

Current Time: Dec 20, 2014 at 9:17:34 AM

Latest Report: Dec 20, 2014 at 8:50 AM


Visibility: N/A

Pressure: 30.30 "Hg

Humidity: 81%

Dew point: 36 °F

Location of HeidelbergLocation

Historic Weather in Heidelberg — Graph

°F

Heidelberg temperature yesterday

Maximum temperature yesterday: 55 °F (at 12:20 AM)
Minimum temperature yesterday: 48 °F (at 8:50 PM)
Average temperature yesterday: 52 °F

Past Weeks' High & Low Weather Summary

 TemperatureHumidityPressure
High55 °F (Dec 18, 6:20 PM)100% (Dec 6, 7:50 AM)30.45 "Hg (Dec 6, 7:50 AM)
Low34 °F (Dec 8, 8:50 PM)57% (Dec 8, 1:50 PM)29.68 "Hg (Dec 12, 4:20 PM)
Average44 °F85%30.04 "Hg
* Reported Dec 5 7:20 AM — Dec 20 7:50 AM, Heidelberg, Weather by CustomWeather, © 2014

Note: Actual official high and low records may vary slightly from our data, if they occured in-between our weather recording intervals... More about our weather records

Advertising

Heidelberg weather history for previous 24 hours

 ConditionsComfort  
Time TempWeatherWind HumidityBarometerVisibility
7:50 AM
Dec 20
41 °FPassing clouds.10 mph81%30.27 "HgN/A
7:20 AM41 °FPassing clouds.9 mph81%30.27 "HgN/A
8:50 PM
Dec 19
48 °FLight rain. Passing clouds.7 mph94%30.07 "HgN/A
8:20 PM50 °FLight rain. Partly cloudy.7 mph94%30.07 "HgN/A
7:50 PM52 °FLight rain. Passing clouds.6 mph94%30.04 "Hg5 mi
7:20 PM52 °FLight rain. Passing clouds.13 mph94%30.01 "Hg5 mi
6:50 PM52 °FLight rain. Overcast.13 mph88%30.01 "HgN/A
6:20 PM52 °FPassing clouds.13 mph88%30.01 "HgN/A
5:50 PM52 °FLight rain. Overcast.13 mph88%29.98 "HgN/A
5:20 PM52 °FLight rain. Overcast.13 mph88%30.01 "HgN/A
4:50 PM52 °FLight rain. Mostly cloudy.14 mph88%29.98 "HgN/A
4:20 PM52 °FLight rain. Mostly cloudy.14 mph88%29.98 "HgN/A
3:50 PM54 °FOvercast.14 mph77%29.98 "HgN/A
3:20 PM54 °FPartly sunny.14 mph77%30.01 "HgN/A
2:50 PM54 °FPartly sunny.12 mph77%30.01 "HgN/A
2:20 PM54 °FMostly cloudy.14 mph77%30.01 "HgN/A
1:50 PM54 °FOvercast.13 mph77%30.01 "HgN/A
1:20 PM54 °FScattered showers. Partly sunny.15 mph77%30.01 "HgN/A
12:50 PM54 °FScattered showers. Overcast.13 mph77%30.04 "HgN/A
12:20 PM54 °FPartly sunny.14 mph77%30.04 "HgN/A
11:50 AM54 °FScattered showers. Partly sunny.15 mph72%30.04 "HgN/A
11:20 AM52 °FScattered showers. Overcast.14 mph77%30.04 "HgN/A
10:50 AM52 °FScattered showers. Overcast.15 mph82%30.04 "HgN/A
10:20 AM52 °FScattered showers. Mostly cloudy.13 mph82%30.07 "HgN/A
9:50 AM52 °FScattered showers. Overcast.10 mph82%30.07 "HgN/A
9:20 AM54 °FOvercast.14 mph72%30.07 "HgN/A
Weather by CustomWeather, © 2014

See weather overviewHow to use our weather pages